Location: Newark
(25.0000°N, 73.5000°E)
Time: 19:59:36
(UTC+00:00)

Explorer 7 - Visible Passes

Search period start: 04 March 2021 00:00
Search period end: 14 March 2021 00:00
Orbit: 484 x 677 km, 50.3° (Epoch: 03 March)

Date Brightness Start Highest point End Pass type
(mag) Time Alt. Az. Time Alt. Az. Time Alt. Az.
04 Mar 9.5 15:04:20 10° N 15:04:24 10° N 15:04:24 10° N visible
05 Mar 9.2 15:08:18 10° NNW 15:09:10 15° NNW 15:09:10 15° NNW visible
06 Mar 8.9 15:12:35 10° NW 15:14:02 21° NW 15:14:02 21° NW visible
07 Mar 8.7 13:38:02 10° N 13:40:17 14° NE 13:42:29 10° ENE visible
07 Mar 8.8 15:17:11 10° NW 15:19:02 25° WNW 15:19:02 25° WNW visible
08 Mar 8.0 13:41:40 10° NNW 13:45:01 24° NE 13:47:50 12° E visible
08 Mar 9.1 15:22:09 10° WNW 15:24:11 21° W 15:24:11 21° W visible
09 Mar 7.1 13:45:46 10° NNW 13:49:39 44° NE 13:53:08 11° ESE visible
09 Mar 9.6 15:28:03 10° W 15:29:30 12° WSW 15:29:30 12° WSW visible
10 Mar 6.7 13:50:07 10° NW 13:54:11 90° S 13:58:01 10° SE visible
11 Mar 7.9 13:54:47 10° WNW 13:58:37 42° SW 14:02:15 10° SSE visible
12 Mar 9.2 13:59:53 10° WNW 14:02:58 21° SW 14:05:57 10° S visible
13 Mar 9.9 14:06:23 10° WSW 14:07:16 11° WSW 14:08:09 10° SW visible
